カタログに戻る

STARLINK-35622

運用中通信VLEO
NORAD 66103·PAYLOAD·🇺🇸 United States

打ち上げ Oct 19, 2025 から Vandenberg Space Force Base

Loading…

次のパス (今後24時間)

TLE

最新Source: CelesTrak SupGP

元期: Sep 14, 2026, 22:35 UTC

1 66103C 25236T   26257.94145833  .00043695  00000+0  12913-2 0  2574
2 66103  53.1577 301.6684 0001077  90.8148 291.4250 15.34360648    13

AllMySatでSTARLINK-35622をリアルタイム追跡

Download on the App Store